Regional Weather Roundup
Issued by NWS

Home | Current Version | Previous Version | Graphics & Text | Print | Product List | Glossary Off
Versions: 1 2 3 4 5 6 7 8 9 10 11 12 13 14 15 16 17 18 19 20 21 22 23 24 25 26 27 28 29 30 31 32 33 34 35 36 37 38 39 40 41 42 43 44 45 46 47 48 49 50

000
ASUS43 KDMX 200606
RWRIA

WEATHER ROUNDUP FOR IOWA
NATIONAL WEATHER SERVICE DES MOINES IA
100 AM CDT FRI APR 20 2018

NOTE: "FAIR" INDICATES FEW OR NO CLOUDS BELOW 12,000 FEET WITH NO
SIGNIFICANT WEATHER AND/OR OBSTRUCTIONS TO VISIBILITY.

* - THESE STATIONS ARE NOT NWS STATIONS...THUS NOT UNDER NWS
QUALITY CONTROL.  THEY ALSO DO NOT REPORT WEATHER SUCH
AS PRECIPITATION OR FOG.

IAZ001>003-012>014-020>022-031>034-043>046-200700-
   NORTHWEST IOWA

CITY           SKY/WX    TMP DP  RH WIND       PRES   REMARKS
CARROLL *      CLOUDY    32  30  93 CALM      30.46R
CHEROKEE *     CLOUDY    30  22  72 CALM      30.46S
DENISON *      CLEAR     32  28  86 E6        30.46R WCI  26
LE MARS *      CLOUDY    34  21  60 CALM      30.45S
ORANGE CITY *  CLOUDY    32  25  74 E6        30.44S WCI  26
SHELDON *      CLOUDY    30  25  80 E8        30.43S WCI  23
SIOUX CITY     CLOUDY    32  22  66 E5        30.45R WCI  27
6HR MIN TEMP:  31; 6HR MAX TEMP:  47;

SPENCER        CLOUDY    24  19  81 E3        30.46S
6HR MIN TEMP:  24; 6HR MAX TEMP:  38;

STORM LAKE *   CLOUDY    28  21  74 E7        30.45R WCI  21
$$

IAZ055>058-069>071-079>083-090>094-200700-
   SOUTHWEST IOWA

CITY           SKY/WX    TMP DP  RH WIND       PRES   REMARKS
ATLANTIC *     CLEAR     36  28  75 CALM      30.45R
AUDUBON *      CLEAR     32  27  80 CALM      30.46R
CLARINDA *     CLEAR     39  27  60 CALM      30.46R
COUNCIL BLFS * CLOUDY    39  28  65 E7        30.43R WCI  34
CRESTON *      CLEAR     34  25  69 E10       30.45R WCI  26
HARLAN  *      CLEAR     36  28  75 NE7       30.48R WCI  30
LAMONI         CLEAR     38  26  62 NE5       30.44R WCI  34
6HR MIN TEMP:  38; 6HR MAX TEMP:  54;

RED OAK *      PTCLDY    39  27  60 NE3       30.44R
SHENANDOAH *   CLEAR     37  27  65 CALM      30.44R
$$

IAZ047>049-059>061-072>074-084-200700-
   CENTRAL IOWA

CITY           SKY/WX    TMP DP  RH WIND       PRES   REMARKS
AMES           CLOUDY    34  26  72 CALM      30.47R
6HR MIN TEMP:  33; 6HR MAX TEMP:  48;

ANKENY *       CLOUDY    34  27  75 N3        30.48R
BOONE *        CLOUDY    32  27  80 NE6       30.45R WCI  26
CHARITON *     CLEAR     37  25  60 NE6       30.45R WCI  33
DES MOINES     CLEAR     40  25  55 NE7       30.47R
6HR MIN TEMP:  40; 6HR MAX TEMP:  52;

GRINNELL*      CLEAR     33  25  72 E5        30.47R WCI  29
KNOXVILLE *    CLEAR     37  25  60 NE5       30.45R WCI  34
MARSHALLTOWN   CLOUDY    31  25  78 NE6       30.46R WCI  25
6HR MIN TEMP:  31; 6HR MAX TEMP:  47;

NEWTON *       CLEAR     34  25  69 NE7       30.47R WCI  28
PELLA *        CLEAR     34  25  68 NE3       30.48R
PERRY *        FAIR      33  24  68 NE5       30.47R WCI  29
$$

IAZ004>006-015-016-023>025-035-036-200700-
   NORTH CENTRAL IOWA

CITY           SKY/WX    TMP DP  RH WIND       PRES   REMARKS
ALGONA *       CLOUDY    25  21  86 CALM      30.47R
CLARION *      CLOUDY    27  25  93 CALM      30.47R
ESTHERVILLE    CLOUDY    18  16  92 W3        30.46R
6HR MIN TEMP:  18; 6HR MAX TEMP:  36;

FORT DODGE *   CLOUDY    28  25  88 E3        30.47R
MASON CITY     CLOUDY    23  19  85 CALM      30.48R
6HR MIN TEMP:  22; 6HR MAX TEMP:  39;

FOREST CITY *  FAIR      23  21  93 CALM      30.47R
WEBSTER CITY * CLOUDY    32  30  93 CALM      30.45R
IOWA FALLS *   FAIR      32  26  80 CALM      30.48R
$$

IAZ007>011-017>019-026>030-037>042-050>054-066-200700-
   NORTHEAST IOWA

CITY           SKY/WX    TMP DP  RH WIND       PRES   REMARKS
CEDAR RAPIDS   FAIR      32  24  72 N7        30.45R WCI  26
6HR MIN TEMP:  32; 6HR MAX TEMP:  50;

CHARLES CITY * FAIR      30  25  80 NW3       30.47S
CLINTON *      FAIR      32  26  78 NE6       30.46S WCI  26
DECORAH *      FAIR      30  23  74 CALM      30.45S
DUBUQUE        FAIR      30  22  72 CALM      30.45S
6HR MIN TEMP:  27; 6HR MAX TEMP:  46;

MONTICELLO *   FAIR      27  25  93 CALM      30.46S
OELWEIN *      FAIR      32  32 100 N3        30.47S
WATERLOO       FAIR      26  22  84 CALM      30.47S
6HR MIN TEMP:  24; 6HR MAX TEMP:  44;

$$

IAZ064-065-067-068-078-200700-
   EAST CENTRAL IOWA

CITY           SKY/WX    TMP DP  RH WIND       PRES   REMARKS
DAVENPORT      FAIR      33  25  72 NE6       30.47S WCI  28
6HR MIN TEMP:  32; 6HR MAX TEMP:  50;

IOWA CITY      FAIR      33  24  69 CALM      30.48R
6HR MIN TEMP:  32; 6HR MAX TEMP:  52;

MT. PLEASANT * CLEAR     32  23  69 N5        30.46R WCI  27
MUSCATINE *    FAIR      32  27  80 CALM      30.47R
QUAD CITIES    FAIR      30  25  81 E3        30.45S
6HR MIN TEMP:  28; 6HR MAX TEMP:  52;

$$

IAZ062-063-075>077-085>089-095>099-200700-
   SOUTHEAST IOWA

CITY           SKY/WX    TMP DP  RH WIND       PRES   REMARKS
BURLINGTON     CLEAR     40  24  53 NE6       30.44R
6HR MIN TEMP:  40; 6HR MAX TEMP:  53;

FAIRFIELD *    CLEAR     32  23  69 NE7       30.46R WCI  26
FORT MADISON * CLEAR     39  28  65 NE3       30.45R
KEOKUK *       CLEAR     41  27  56 E6        30.44R
OSKALOOSA *    FAIR      32  24  72 NE7       30.47R WCI  26
CENTERVILLE *    N/A     37  25  60 CALM      30.46R
OTTUMWA        CLEAR     36  24  62 NE8       30.46R WCI  30
6HR MIN TEMP:  36; 6HR MAX TEMP:  53;

WASHINGTON *   CLEAR     34  27  75 NE6       30.47R WCI  29
$$

ABBREVIATIONS USED IN REMARKS
   TC - TEMPERATURES IN CELSIUS
  WCI - WIND CHILL INDEX
   HX - HEAT INDEX
  VSB - VISIBILITY
$$





USA.gov is the U.S. government's official web portal to all federal, state and local government web resources and services.